| time (UTC) | temp C | wind direction | speed KPH | gust KPH | rain 1hr cm | rain 24hr cm | rain mn cm | humidity % | barometer mb |
| 20260507151600 | 12 | 0 | 0.0 | 0.0 | 0.00 | 0.10 | 0.05 | 66 | 1011.6 |
| 20260507150100 | 12 | 0 | 0.0 | 0.0 | 0.00 | 0.10 | 0.05 | 70 | 1011.7 |
| 20260507144600 | 12 | 0 | 0.0 | 0.0 | 0.00 | 0.20 | 0.05 | 71 | 1011.9 |
| 20260507143111 | 11 | 0 | 0.0 | 0.0 | 0.00 | 0.20 | 0.05 | 74 | 1012.1 |
| 20260507141559 | 11 | 0 | 0.0 | 0.0 | 0.00 | 0.20 | 0.05 | 72 | 1012.3 |
| 20260507134600 | 12 | 0 | 0.0 | 0.0 | 0.00 | 0.61 | 0.05 | 77 | 1012.5 |
| 20260507133109 | 11 | 0 | 0.0 | 0.0 | 0.00 | 0.61 | 0.05 | 75 | 1012.6 |
| 20260507131612 | 11 | 0 | 0.0 | 0.0 | 0.00 | 0.61 | 0.05 | 73 | 1012.2 |
| 20260507130059 | 11 | 0 | 0.0 | 1.6 | 0.00 | 0.61 | 0.05 | 75 | 1012.2 |
| 20260507124603 | 11 | 0 | 0.0 | 0.0 | 0.00 | 0.71 | 0.05 | 76 | 1012.4 |
| 20260507123059 | 11 | 0 | 0.0 | 0.0 | 0.00 | 0.71 | 0.05 | 79 | 1012.4 |
| 20260507121601 | 11 | 0 | 0.0 | 0.0 | 0.00 | 0.71 | 0.05 | 80 | 1012.2 |
| 20260507120100 | 11 | 0 | 0.0 | 3.2 | 0.00 | 0.71 | 0.05 | 79 | 1012.2 |
| 20260507114607 | 11 | 0 | 0.0 | 1.6 | 0.00 | 0.71 | 0.05 | 82 | 1012.1 |
| 20260507113102 | 11 | 0 | 0.0 | 0.0 | 0.00 | 0.71 | 0.05 | 83 | 1011.9 |
| 20260507111559 | 11 | 0 | 0.0 | 0.0 | 0.00 | 0.71 | 0.05 | 84 | 1011.9 |
| 20260507110059 | 11 | 0 | 0.0 | 0.0 | 0.00 | 0.71 | 0.05 | 86 | 1011.8 |
| 20260507104558 | 11 | 0 | 0.0 | 0.0 | 0.00 | 0.71 | 0.05 | 87 | 1011.8 |
| 20260507103058 | 11 | 0 | 0.0 | 0.0 | 0.00 | 0.71 | 0.05 | 88 | 1011.6 |
| 20260507101601 | 11 | 0 | 0.0 | 0.0 | 0.00 | 0.71 | 0.05 | 88 | 1011.6 |
| 20260507100059 | 12 | 0 | 0.0 | 0.0 | 0.00 | 0.71 | 0.05 | 88 | 1011.4 |
| 20260507094601 | 12 | 0 | 0.0 | 0.0 | 0.00 | 0.71 | 0.05 | 89 | 1011.5 |
| 20260507093113 | 12 | 0 | 0.0 | 0.0 | 0.00 | 0.71 | 0.05 | 89 | 1011.4 |
| 20260507091600 | 12 | 0 | 0.0 | 0.0 | 0.00 | 0.71 | 0.05 | 89 | 1010.9 |
| 20260507090059 | 12 | 0 | 0.0 | 0.0 | 0.00 | 0.71 | 0.05 | 89 | 1011.1 |
| 20260507084602 | 12 | 0 | 0.0 | 0.0 | 0.00 | 0.71 | 0.05 | 89 | 1011.2 |
| 20260507083102 | 12 | 0 | 0.0 | 0.0 | 0.00 | 0.71 | 0.05 | 89 | 1011.2 |
| 20260507081612 | 12 | 0 | 0.0 | 0.0 | 0.00 | 0.71 | 0.05 | 89 | 1011.0 |
| 20260507080114 | 12 | 0 | 0.0 | 0.0 | 0.00 | 0.71 | 0.05 | 89 | 1010.5 |
| 20260507074600 | 12 | 0 | 0.0 | 0.0 | 0.00 | 0.71 | 0.05 | 88 | 1010.5 |
| 20260507073059 | 12 | 0 | 0.0 | 0.0 | 0.00 | 0.71 | 0.05 | 89 | 1010.3 |
| 20260507071611 | 12 | 0 | 0.0 | 1.6 | 0.00 | 0.71 | 0.05 | 89 | 1010.4 |
| 20260507070100 | 12 | 0 | 0.0 | 0.0 | 0.00 | 0.71 | 0.05 | 89 | 1010.4 |
| 20260507064559 | 12 | 0 | 0.0 | 0.0 | 0.00 | 0.71 | 0.05 | 89 | 1010.5 |
| 20260507063058 | 12 | 0 | 0.0 | 0.0 | 0.00 | 0.71 | 0.05 | 90 | 1010.6 |
| 20260507061602 | 12 | 0 | 0.0 | 0.0 | 0.00 | 0.71 | 0.05 | 89 | 1010.4 |
| 20260507060100 | 12 | 0 | 0.0 | 0.0 | 0.00 | 0.71 | 0.05 | 90 | 1010.3 |
| 20260507054602 | 13 | 0 | 0.0 | 1.6 | 0.03 | 0.71 | 0.05 | 89 | 1010.5 |
| 20260507053127 | 13 | 0 | 0.0 | 0.0 | 0.03 | 0.71 | 0.05 | 88 | 1010.7 |
| 20260507051606 | 13 | 0 | 0.0 | 1.6 | 0.03 | 0.71 | 0.05 | 88 | 1010.1 |
| 20260507050100 | 13 | 0 | 0.0 | 1.6 | 0.05 | 0.71 | 0.05 | 87 | 1010.4 |
| 20260507044601 | 14 | 0 | 0.0 | 0.0 | 0.03 | 0.69 | 0.03 | 86 | 1010.6 |
| 20260507043100 | 14 | 0 | 0.0 | 1.6 | 0.03 | 0.69 | 0.03 | 85 | 1010.6 |
| 20260507041558 | 15 | 0 | 0.0 | 0.0 | 0.03 | 0.69 | 0.03 | 84 | 1010.6 |
| 20260507040105 | 15 | 0 | 0.0 | 0.0 | 0.00 | 0.66 | 0.00 | 84 | 1010.4 |
| 20260507034558 | 15 | 0 | 0.0 | 1.6 | 0.00 | 0.66 | 0.66 | 83 | 1010.0 |
| 20260507033102 | 16 | 0 | 0.0 | 1.6 | 0.00 | 0.66 | 0.66 | 81 | 1010.2 |
| 20260507031558 | 16 | 0 | 0.0 | 1.6 | 0.00 | 0.66 | 0.66 | 80 | 1010.2 |
| 20260507030101 | 16 | 0 | 0.0 | 0.0 | 0.00 | 0.66 | 0.66 | 80 | 1009.8 |
| 20260507024605 | 16 | 0 | 0.0 | 4.8 | 0.00 | 0.66 | 0.66 | 81 | 1009.6 |
| 20260507023058 | 17 | 0 | 0.0 | 3.2 | 0.00 | 0.66 | 0.66 | 83 | 1009.7 |
| 20260507021559 | 17 | 0 | 0.0 | 0.0 | 0.00 | 0.66 | 0.66 | 84 | 1009.3 |
| 20260507020059 | 17 | 0 | 0.0 | 1.6 | 0.00 | 0.66 | 0.66 | 85 | 1009.2 |
| 20260507014619 | 18 | 0 | 0.0 | 1.6 | 0.00 | 0.66 | 0.66 | 87 | 1009.0 |
| 20260507013100 | 18 | 0 | 0.0 | 0.0 | 0.00 | 0.66 | 0.66 | 88 | 1009.2 |
| 20260507011609 | 18 | 0 | 0.0 | 0.0 | 0.00 | 0.66 | 0.66 | 90 | 1009.3 |
| 20260507010112 | 18 | 0 | 0.0 | 0.0 | 0.00 | 0.66 | 0.66 | 89 | 1009.1 |
| 20260507004615 | 18 | 0 | 0.0 | 0.0 | 0.00 | 0.66 | 0.66 | 89 | 1009.0 |
| 20260507003059 | 18 | 0 | 0.0 | 0.0 | 0.00 | 0.66 | 0.66 | 88 | 1008.9 |
| 20260507001558 | 18 | 0 | 0.0 | 0.0 | 0.00 | 0.66 | 0.66 | 86 | 1008.7 |
| 20260506234600 | 19 | 0 | 0.0 | 0.0 | 0.00 | 0.66 | 0.66 | 84 | 1008.5 |
| 20260506233059 | 20 | 0 | 0.0 | 0.0 | 0.00 | 0.66 | 0.66 | 83 | 1008.2 |
| 20260506231602 | 20 | 0 | 0.0 | 1.6 | 0.00 | 0.66 | 0.66 | 82 | 1008.2 |
| 20260506230104 | 20 | 0 | 0.0 | 0.0 | 0.00 | 0.66 | 0.66 | 81 | 1008.0 |
| 20260506224558 | 20 | 0 | 0.0 | 1.6 | 0.00 | 0.66 | 0.66 | 81 | 1007.9 |
| 20260506223103 | 20 | 0 | 0.0 | 4.8 | 0.00 | 0.66 | 0.66 | 80 | 1007.8 |
| 20260506221600 | 20 | 0 | 0.0 | 8.0 | 0.00 | 0.66 | 0.66 | 79 | 1007.8 |
| 20260506220059 | 21 | 0 | 0.0 | 1.6 | 0.00 | 0.66 | 0.66 | 80 | 1007.7 |
| 20260506214604 | 21 | 0 | 0.0 | 1.6 | 0.00 | 0.66 | 0.66 | 80 | 1007.8 |
| 20260506213059 | 20 | 0 | 0.0 | 4.8 | 0.00 | 0.66 | 0.66 | 80 | 1007.8 |
| 20260506211605 | 20 | 159 | 0.0 | 6.4 | 0.00 | 0.66 | 0.66 | 79 | 1007.7 |
| 20260506210101 | 20 | 0 | 0.0 | 4.8 | 0.00 | 0.66 | 0.66 | 81 | 1007.4 |
| 20260506204600 | 20 | 0 | 0.0 | 3.2 | 0.00 | 0.66 | 0.66 | 80 | 1007.1 |
| 20260506203100 | 20 | 0 | 0.0 | 4.8 | 0.00 | 0.66 | 0.66 | 80 | 1007.3 |
| 20260506201558 | 20 | 0 | 0.0 | 4.8 | 0.00 | 0.66 | 0.66 | 80 | 1007.6 |
| 20260506200106 | 20 | 0 | 0.0 | 4.8 | 0.00 | 0.66 | 0.66 | 80 | 1007.6 |
| 20260506194606 | 20 | 0 | 0.0 | 6.4 | 0.00 | 0.66 | 0.66 | 81 | 1007.5 |
| 20260506193101 | 20 | 0 | 0.0 | 11.3 | 0.00 | 0.66 | 0.66 | 81 | 1007.5 |
| 20260506191608 | 20 | 0 | 0.0 | 11.3 | 0.00 | 0.66 | 0.66 | 81 | 1007.7 |
| 20260506190058 | 19 | 0 | 0.0 | 8.0 | 0.00 | 0.66 | 0.66 | 82 | 1007.8 |
| 20260506184601 | 19 | 0 | 0.0 | 3.2 | 0.00 | 0.66 | 0.66 | 83 | 1007.9 |
| 20260506183113 | 18 | 0 | 0.0 | 4.8 | 0.00 | 0.66 | 0.66 | 82 | 1007.9 |
| 20260506181603 | 18 | 0 | 0.0 | 1.6 | 0.00 | 0.66 | 0.66 | 83 | 1008.3 |
| 20260506180116 | 18 | 0 | 0.0 | 4.8 | 0.00 | 0.66 | 0.66 | 84 | 1008.2 |
| 20260506174557 | 18 | 0 | 0.0 | 8.0 | 0.00 | 0.66 | 0.66 | 85 | 1008.3 |
| 20260506173137 | 17 | 0 | 0.0 | 8.0 | 0.00 | 0.66 | 0.66 | 86 | 1008.3 |
| 20260506171600 | 17 | 0 | 0.0 | 4.8 | 0.00 | 0.66 | 0.66 | 86 | 1008.5 |
| 20260506170100 | 17 | 0 | 0.0 | 12.9 | 0.00 | 0.66 | 0.66 | 87 | 1008.7 |
| 20260506164559 | 17 | 0 | 0.0 | 9.7 | 0.00 | 0.66 | 0.66 | 88 | 1008.5 |
| 20260506163105 | 17 | 0 | 0.0 | 4.8 | 0.00 | 0.66 | 0.66 | 90 | 1008.4 |
| 20260506161558 | 16 | 259 | 1.6 | 14.5 | 0.00 | 0.66 | 0.66 | 90 | 1008.7 |
| 20260506154600 | 16 | 0 | 0.0 | 9.7 | 0.08 | 0.66 | 0.66 | 91 | 1008.6 |
| 20260506153058 | 16 | 0 | 0.0 | 8.0 | 0.13 | 0.66 | 0.66 | 91 | 1008.9 |